EW1867 Weather Reports


Display with metric or nautical units.
time (UTC)temp
F
wind
direction
speed
MPH
gust
MPH
rain 1hr
in
rain 24hr
in
rain mn
in
humidity
%
barometer
mb
20260508141436 55 126 0.0 4.0 0.00 0.00 0.00 90 1016.4
20260508140536 54 117 1.0 3.0 0.00 0.00 0.00 90 1016.4
20260508135636 54 110 1.0 4.0 0.00 0.00 0.00 90 1016.2
20260508134736 54 107 1.0 5.0 0.00 0.00 0.00 90 1016.0
20260508133837 54 107 1.0 6.0 0.00 0.00 0.00 91 1015.9
20260508132937 54 105 1.0 4.0 0.00 0.00 0.00 91 1015.8
20260508132037 54 105 1.0 4.0 0.00 0.00 0.00 91 1015.9
20260508131136 54 114 1.0 2.0 0.00 0.00 0.00 91 1015.9
20260508130237 54 105 1.0 5.0 0.00 0.00 0.00 91 1015.9
20260508125337 54 104 0.0 3.0 0.00 0.00 0.00 91 1015.8
20260508124438 54 109 1.0 3.0 0.00 0.00 0.00 91 1015.7
20260508122636 54 0 0.0 3.0 0.00 0.00 0.00 91 1015.5
20260508115937 55 111 1.0 3.0 0.00 0.00 0.00 91 1015.5
20260508115037 55 115 1.0 3.0 0.00 0.00 0.00 91 1015.3
20260508114136 55 116 1.0 4.0 0.00 0.00 0.00 91 1015.4
20260508113237 55 114 1.0 4.0 0.00 0.00 0.00 91 1015.2
20260508112336 55 0 0.0 3.0 0.00 0.00 0.00 91 1015.2
20260508111436 55 0 0.0 3.0 0.00 0.00 0.00 91 1015.3
20260508110536 55 107 0.0 3.0 0.00 0.00 0.00 91 1015.3
20260508105637 56 108 1.0 2.0 0.00 0.00 0.00 90 1015.3
20260508104736 56 102 1.0 6.0 0.00 0.00 0.00 90 1015.3
20260508103837 56 96 1.0 5.0 0.00 0.00 0.00 90 1015.4
20260508102937 56 0 0.0 4.0 0.00 0.00 0.00 90 1015.4
20260508102036 56 0 0.0 2.0 0.00 0.00 0.00 90 1015.4
20260508101137 56 109 0.0 2.0 0.00 0.00 0.00 90 1015.3
20260508100236 56 96 1.0 7.0 0.00 0.00 0.00 90 1015.3
20260508095337 56 101 1.0 7.0 0.00 0.00 0.00 89 1015.3
20260508094437 57 105 1.0 3.0 0.00 0.00 0.00 89 1015.3
20260508093537 57 104 1.0 4.0 0.00 0.00 0.00 89 1015.3
20260508092637 57 100 1.0 4.0 0.00 0.00 0.00 89 1015.3
20260508091737 57 109 1.0 4.0 0.00 0.00 0.00 89 1015.3
20260508090837 57 96 1.0 5.0 0.00 0.00 0.00 89 1015.3
20260508085937 58 104 1.0 3.0 0.00 0.00 0.00 88 1015.1
20260508085037 58 108 0.0 3.0 0.00 0.00 0.00 88 1015.1
20260508084136 58 0 0.0 3.0 0.00 0.00 0.00 87 1015.1
20260508083236 59 0 0.0 2.0 0.00 0.00 0.00 87 1015.2
20260508082336 59 127 0.0 2.0 0.00 0.00 0.00 86 1015.3
20260508075637 60 105 0.0 2.0 0.00 0.00 0.00 85 1015.1
20260508074736 60 123 1.0 2.0 0.00 0.00 0.00 85 1015.2
20260508073837 61 117 0.0 4.0 0.00 0.00 0.00 84 1015.0
20260508071136 62 108 1.0 4.0 0.00 0.00 0.00 83 1014.8
20260508065336 62 0 0.0 2.0 0.00 0.00 0.00 83 1014.9
20260508064437 63 124 1.0 4.0 0.00 0.00 0.00 82 1014.8
20260508063537 63 124 1.0 3.0 0.00 0.00 0.00 82 1014.9
20260508062637 63 110 1.0 5.0 0.00 0.00 0.00 81 1014.7
20260508061736 64 111 0.0 5.0 0.00 0.00 0.00 81 1014.6
20260508060837 64 111 1.0 2.0 0.00 0.00 0.00 80 1014.6
20260508055937 64 95 0.0 4.0 0.00 0.00 0.00 80 1014.5
20260508055036 65 0 0.0 0.0 0.00 0.00 0.00 80 1014.6
20260508054136 65 0 0.0 0.0 0.00 0.00 0.00 80 1014.6
20260508052336 66 0 0.0 0.0 0.00 0.00 0.00 78 1014.6
20260508051437 66 124 0.0 2.0 0.00 0.00 0.00 78 1014.6
20260508050537 67 120 1.0 5.0 0.00 0.00 0.00 77 1014.6
20260508045636 67 127 0.0 2.0 0.00 0.00 0.00 76 1014.6
20260508044737 68 121 0.0 2.0 0.00 0.00 0.00 75 1014.5
20260508043837 69 128 1.0 2.0 0.00 0.00 0.00 75 1014.4
20260508042937 70 125 0.0 3.0 0.00 0.00 0.00 73 1014.3
20260508042037 71 0 0.0 3.0 0.00 0.00 0.00 73 1014.1
20260508041137 72 0 0.0 2.0 0.00 0.00 0.00 73 1014.2
20260508040237 73 219 1.0 2.0 0.00 0.00 0.00 71 1014.0
20260508034436 74 207 0.0 4.0 0.00 0.00 0.00 69 1013.8
20260508033536 75 200 1.0 2.0 0.00 0.00 0.00 68 1013.8
20260508032636 76 220 1.0 3.0 0.00 0.00 0.00 68 1013.8
20260508031737 76 201 1.0 3.0 0.00 0.00 0.00 68 1013.6
20260508030837 78 218 1.0 4.0 0.00 0.00 0.00 67 1013.4
20260508025937 79 209 1.0 6.0 0.00 0.00 0.00 65 1013.4
20260508024137 82 0 0.0 1.0 0.00 0.00 0.00 55 1013.2
20260508023236 83 0 0.0 4.0 0.00 0.00 0.00 54 1013.2
20260508022337 83 0 0.0 1.0 0.00 0.00 0.00 54 1013.1
20260508021437 83 216 0.0 2.0 0.00 0.00 0.00 54 1013.1
20260508020537 82 224 1.0 2.0 0.00 0.00 0.00 55 1013.2
20260508015637 82 218 1.0 3.0 0.00 0.00 0.00 55 1013.1
20260508013837 83 234 1.0 4.0 0.00 0.00 0.00 56 1013.2
20260508012938 83 244 1.0 4.0 0.00 0.00 0.00 55 1013.2
20260508012037 83 227 0.0 3.0 0.00 0.00 0.00 55 1013.3
20260508005337 83 243 1.0 4.0 0.00 0.00 0.00 56 1013.4
20260508003537 84 293 1.0 3.0 0.00 0.00 0.00 54 1013.6
20260508001737 84 297 2.0 3.0 0.00 0.00 0.00 54 1013.6
20260508000837 85 265 1.0 3.0 0.00 0.00 0.00 53 1013.7
20260507235937 85 113 1.0 2.0 0.00 0.00 0.00 52 1013.6
20260507235037 85 216 2.0 3.0 0.00 0.00 0.00 51 1013.7
20260507234136 85 216 2.0 4.0 0.00 0.00 0.00 53 1013.7
20260507232337 86 244 2.0 4.0 0.00 0.00 0.00 53 1013.8
20260507231438 86 229 2.0 5.0 0.00 0.00 0.00 53 1014.0
20260507230537 85 227 1.0 4.0 0.00 0.00 0.00 53 1014.2
20260507225637 85 270 1.0 3.0 0.00 0.00 0.00 54 1014.3
20260507223837 86 230 2.0 4.0 0.00 0.00 0.00 53 1014.6
20260507222937 85 163 1.0 4.0 0.00 0.00 0.00 54 1014.8
20260507222037 84 296 1.0 4.0 0.00 0.00 0.00 54 1015.0
20260507221136 84 230 1.0 4.0 0.00 0.00 0.00 53 1015.1
20260507215337 84 211 2.0 5.0 0.00 0.00 0.00 53 1015.4
20260507214437 83 215 1.0 4.0 0.00 0.00 0.00 54 1015.4
20260507213537 82 283 1.0 3.0 0.00 0.00 0.00 57 1015.6
20260507212637 83 274 1.0 2.0 0.00 0.00 0.00 54 1015.7
20260507211737 82 252 1.0 3.0 0.00 0.00 0.00 55 1016.0
20260507210837 82 249 2.0 5.0 0.00 0.00 0.00 56 1016.1
20260507205937 81 294 1.0 3.0 0.00 0.00 0.00 57 1016.1
20260507205037 82 223 1.0 5.0 0.00 0.00 0.00 56 1016.2
20260507204137 81 244 1.0 4.0 0.00 0.00 0.00 57 1016.2
20260507203237 79 317 1.0 3.0 0.00 0.00 0.00 58 1016.4
20260507202337 81 243 2.0 4.0 0.00 0.00 0.00 56 1016.5
20260507201437 81 208 1.0 4.0 0.00 0.00 0.00 56 1016.5
20260507200537 80 234 1.0 4.0 0.00 0.00 0.00 57 1016.6
20260507195637 80 232 1.0 3.0 0.00 0.00 0.00 58 1016.7
20260507194737 80 223 1.0 3.0 0.00 0.00 0.00 57 1016.8
20260507193837 79 225 1.0 3.0 0.00 0.00 0.00 57 1017.0
20260507192937 78 257 2.0 4.0 0.00 0.00 0.00 59 1017.1
20260507192037 78 202 2.0 5.0 0.00 0.00 0.00 60 1017.2
20260507191137 77 177 1.0 4.0 0.00 0.00 0.00 60 1017.3
20260507190237 77 231 1.0 3.0 0.00 0.00 0.00 61 1017.5
20260507185337 78 218 1.0 4.0 0.00 0.00 0.00 60 1017.5
20260507184437 77 209 2.0 3.0 0.00 0.00 0.00 62 1017.4
20260507183537 76 224 1.0 4.0 0.00 0.00 0.00 61 1017.6
20260507182637 76 217 1.0 4.0 0.00 0.00 0.00 63 1017.7
20260507181737 76 219 1.0 4.0 0.00 0.00 0.00 63 1017.7
20260507180837 75 235 1.0 3.0 0.00 0.00 0.00 64 1017.5
20260507175937 75 236 1.0 3.0 0.00 0.00 0.00 64 1017.7
20260507175037 73 105 1.0 4.0 0.00 0.00 0.00 66 1017.7
20260507174137 73 224 1.0 3.0 0.00 0.00 0.00 67 1017.6
20260507173237 73 223 1.0 5.0 0.00 0.00 0.00 67 1017.7
20260507171437 73 207 1.0 3.0 0.00 0.00 0.00 67 1017.7
20260507165637 70 207 1.0 3.0 0.00 0.00 0.00 70 1018.0
20260507164737 70 212 1.0 3.0 0.00 0.00 0.00 70 1017.9
20260507162937 68 121 0.0 3.0 0.00 0.00 0.00 72 1017.9
20260507162037 68 112 1.0 2.0 0.00 0.00 0.00 73 1018.0
20260507161137 67 111 1.0 3.0 0.00 0.00 0.00 74 1017.9
20260507160237 66 218 1.0 2.0 0.00 0.00 0.00 76 1018.0
20260507155337 65 165 1.0 3.0 0.00 0.00 0.00 78 1018.0
20260507154437 64 130 1.0 3.0 0.00 0.00 0.00 78 1018.0
20260507153537 64 227 1.0 2.0 0.00 0.00 0.00 80 1017.9
20260507152637 63 114 0.0 4.0 0.00 0.00 0.00 80 1017.9
20260507151737 62 99 1.0 3.0 0.00 0.00 0.00 81 1018.0
20260507145937 62 161 1.0 1.0 0.00 0.00 0.00 82 1018.1
20260507145037 60 218 1.0 2.0 0.00 0.00 0.00 85 1018.1
20260507143237 58 0 0.0 2.0 0.00 0.00 0.00 88 1017.9
20260507142337 57 115 0.0 3.0 0.00 0.00 0.00 89 1017.8